Cloquet, MN

6:52 AM CDT on July 23, 2017 (GMT -0500)
Cloquet Carlton County

Weather History for KCOQ - December, 2012

Change the Weather History Date:

Sunday, December 30, 2012

  Actual Average Record
Temperature  
Mean Temperature 10 °F -  
Max Temperature 19 °F 18 °F 37 °F (2010)
Min Temperature 0 °F 4 °F -23 °F (2013)
Degree Days  
Heating Degree Days 56    
Moisture  
Dew Point 2 °F    
Average Humidity 74    
Maximum Humidity 85    
Minimum Humidity 58    
Precipitation  
Precipitation 0.00 in - - ()
Sea Level Pressure  
Sea Level Pressure 29.96 in    
Wind  
Wind Speed 4 mph (SW)    
Max Wind Speed 15 mph    
Max Gust Speed 17 mph    
Visibility 10 miles    
Events      
Averages and records for this station are not official NWS values.
T = Trace of Precipitation, MM = Missing Value Source: NWS Daily Summary

Daily Weather History Graph

Daily Weather History Graph

Search for Another Location

Airport or City:

Trip Planner

Search our weather history database for the weather conditions in past years. The results will help you decide how hot, cold, wet, or windy it might be!

Date:

Astronomy

Dec. 30, 2012 Rise Set
Actual Time 7:54 AM CST 4:31 PM CST
Civil Twilight 7:19 AM CST 5:06 PM CST
Nautical Twilight 6:41 AM CST 5:44 PM CST
Astronomical Twilight 6:04 AM CST 6:21 PM CST
Moon 7:13 PM CST (12/30) 8:55 AM CST (12/30)
Length of Visible Light 9h 46m
Length of Day
8h 36m
Waning Gibbous, 95% of the Moon is Illuminated
Dec 30
Waning Gibbous
Jan 4
Last Quarter
Jan 11
New
Jan 18
First Quarter
Jan 26
Full

Hourly Weather History & Observations

Time (CST) Temp. Windchill Dew Point Humidity Pressure Visibility Wind Dir Wind Speed Gust Speed Precip Events Conditions
12:16 AM 6.8 °F -2.0 °F 1.4 °F 79% 30.06 in 10.0 mi West 4.6 mph - N/A   Clear
12:56 AM 3.2 °F -6.2 °F -0.4 °F 85% 30.06 in 10.0 mi West 4.6 mph - N/A   Clear
1:16 AM 3.2 °F -6.2 °F -0.4 °F 85% 30.07 in 10.0 mi West 4.6 mph - N/A   Clear
1:35 AM 3.2 °F -6.2 °F -2.2 °F 78% 30.07 in 10.0 mi West 4.6 mph - N/A   Clear
1:56 AM 3.2 °F -4.2 °F -0.4 °F 85% 30.06 in 10.0 mi West 3.5 mph - N/A   Clear
2:16 AM 1.4 °F - -2.2 °F 85% 30.06 in 10.0 mi Calm Calm - N/A   Clear
2:36 AM 1.4 °F - -4.0 °F 78% 30.06 in 10.0 mi Calm Calm - N/A   Clear
2:56 AM -0.4 °F - -4.0 °F 85% 30.07 in 10.0 mi Calm Calm - N/A   Clear
3:16 AM -0.4 °F - -5.8 °F 78% 30.08 in 10.0 mi Calm Calm - N/A   Clear
3:36 AM -0.4 °F - -5.8 °F 78% 30.08 in 10.0 mi Calm Calm - N/A   Clear
3:56 AM 1.4 °F -6.2 °F -4.0 °F 78% 30.09 in 10.0 mi WSW 3.5 mph - N/A   Clear
4:16 AM -0.4 °F - -5.8 °F 78% 30.08 in 10.0 mi Calm Calm - N/A   Clear
4:36 AM 1.4 °F - -4.0 °F 78% 30.08 in 10.0 mi Calm Calm - N/A   Clear
4:56 AM 1.4 °F -6.2 °F -5.8 °F 72% 30.08 in 10.0 mi WSW 3.5 mph - N/A   Clear
5:15 AM 1.4 °F - -4.0 °F 78% 30.08 in 10.0 mi Calm Calm - N/A   Clear
5:36 AM 1.4 °F - -5.8 °F 72% 30.08 in 10.0 mi Calm Calm - N/A   Clear
6:15 AM -0.4 °F - -5.8 °F 78% 30.07 in 10.0 mi Calm Calm - N/A   Clear
6:36 AM -0.4 °F - -5.8 °F 78% 30.06 in 10.0 mi Calm Calm - N/A   Clear
6:56 AM -0.4 °F -10.4 °F -5.8 °F 78% 30.07 in 10.0 mi SSW 4.6 mph - N/A   Clear
7:15 AM -0.4 °F -8.3 °F -5.8 °F 78% 30.07 in 10.0 mi SSW 3.5 mph - N/A   Clear
7:36 AM -0.4 °F -8.3 °F -5.8 °F 78% 30.06 in 10.0 mi SSW 3.5 mph - N/A   Clear
7:56 AM -0.4 °F -10.4 °F -5.8 °F 78% 30.05 in 10.0 mi SSW 4.6 mph - N/A   Clear
8:15 AM -0.4 °F -10.4 °F -5.8 °F 78% 30.05 in 10.0 mi SSW 4.6 mph - N/A   Clear
8:36 AM -0.4 °F -8.3 °F -5.8 °F 78% 30.05 in 10.0 mi South 3.5 mph - N/A   Clear
8:56 AM 1.4 °F -8.3 °F -4.0 °F 78% 30.05 in 10.0 mi SSW 4.6 mph - N/A   Clear
9:15 AM 1.4 °F -8.3 °F -4.0 °F 78% 30.06 in 10.0 mi SSW 4.6 mph - N/A   Clear
9:36 AM 3.2 °F -6.2 °F -2.2 °F 78% 30.06 in 10.0 mi SSW 4.6 mph - N/A   Clear
9:56 AM 3.2 °F -6.2 °F -2.2 °F 78% 30.06 in 10.0 mi SSW 4.6 mph - N/A   Clear
10:15 AM 5.0 °F -6.9 °F -0.4 °F 78% 30.06 in 10.0 mi South 6.9 mph - N/A   Clear
10:36 AM 6.8 °F -6.9 °F -0.4 °F 72% 30.06 in 10.0 mi SSW 9.2 mph - N/A   Clear
10:56 AM 8.6 °F -5.5 °F 1.4 °F 73% 30.05 in 10.0 mi SSW 10.4 mph - N/A   Clear
11:15 AM 8.6 °F -2.6 °F 1.4 °F 73% 30.03 in 10.0 mi SSW 6.9 mph - N/A   Clear
11:36 AM 10.4 °F 2.2 °F 1.4 °F 67% 30.02 in 10.0 mi SSW 4.6 mph - N/A   Clear
11:56 AM 12.2 °F 4.3 °F 3.2 °F 67% 30.00 in 10.0 mi SSW 4.6 mph - N/A   Clear
12:16 PM 12.2 °F 2.9 °F 3.2 °F 67% 29.98 in 10.0 mi South 5.8 mph - N/A   Clear
12:36 PM 14.0 °F 5.1 °F 3.2 °F 62% 29.97 in 10.0 mi SSE 5.8 mph - N/A   Clear
12:56 PM 14.0 °F 3.9 °F 3.2 °F 62% 29.95 in 10.0 mi South 6.9 mph - N/A   Clear
1:16 PM 15.8 °F 6.1 °F 5.0 °F 62% 29.94 in 10.0 mi South 6.9 mph - N/A   Clear
1:36 PM 15.8 °F 7.2 °F 6.8 °F 68% 29.93 in 10.0 mi SSE 5.8 mph - N/A   Clear
1:56 PM 17.6 °F 10.7 °F 6.8 °F 63% 29.91 in 10.0 mi South 4.6 mph - N/A   Clear
2:16 PM 19.4 °F 10.4 °F 6.8 °F 58% 29.90 in 10.0 mi South 6.9 mph - N/A   Clear
2:36 PM 19.4 °F 9.5 °F 8.6 °F 63% 29.89 in 10.0 mi SSE 8.1 mph - N/A   Clear
2:56 PM 19.4 °F 12.8 °F 8.6 °F 63% 29.88 in 10.0 mi South 4.6 mph - N/A   Clear
3:16 PM 19.4 °F 9.5 °F 8.6 °F 63% 29.87 in 10.0 mi South 8.1 mph - N/A   Clear
3:36 PM 19.4 °F 8.6 °F 8.6 °F 63% 29.86 in 10.0 mi South 9.2 mph - N/A   Clear
3:55 PM 19.4 °F 8.6 °F 8.6 °F 63% 29.86 in 10.0 mi South 9.2 mph - N/A   Clear
4:16 PM 19.4 °F 11.5 °F 8.6 °F 63% 29.86 in 10.0 mi South 5.8 mph - N/A   Clear
4:41 PM 19.4 °F - 8.6 °F 63% 29.85 in 10.0 mi Calm Calm - N/A   Clear
5:01 PM 17.6 °F - 8.6 °F 68% 29.84 in 10.0 mi Calm Calm - N/A   Clear
5:36 PM 17.6 °F 10.7 °F 8.6 °F 68% 29.84 in 10.0 mi SSW 4.6 mph - N/A   Clear
5:56 PM 15.8 °F 8.6 °F 8.6 °F 73% 29.85 in 10.0 mi SW 4.6 mph - N/A   Clear
6:16 PM 15.8 °F 8.6 °F 8.6 °F 73% 29.85 in 10.0 mi SSW 4.6 mph - N/A   Clear
6:36 PM 15.8 °F 8.6 °F 8.6 °F 73% 29.85 in 10.0 mi SW 4.6 mph - N/A   Clear
6:55 PM 14.0 °F 6.5 °F 6.8 °F 73% 29.84 in 10.0 mi SW 4.6 mph - N/A   Clear
7:16 PM 15.8 °F 7.2 °F 8.6 °F 73% 29.84 in 10.0 mi SW 5.8 mph - N/A   Scattered Clouds
7:36 PM 15.8 °F 8.6 °F 8.6 °F 73% 29.83 in 10.0 mi WSW 4.6 mph - N/A   Mostly Cloudy
7:55 PM 15.8 °F 7.2 °F 8.6 °F 73% 29.83 in 10.0 mi WSW 5.8 mph - N/A   Overcast
8:16 PM 15.8 °F 7.2 °F 8.6 °F 73% 29.82 in 10.0 mi West 5.8 mph - N/A   Overcast
8:36 PM 14.0 °F 3.9 °F 8.6 °F 79% 29.82 in 10.0 mi WSW 6.9 mph - N/A   Scattered Clouds
8:55 PM 14.0 °F 3.9 °F 6.8 °F 73% 29.82 in 10.0 mi WSW 6.9 mph - N/A   Scattered Clouds
9:16 PM 14.0 °F 5.1 °F 6.8 °F 73% 29.83 in 10.0 mi WSW 5.8 mph - N/A   Mostly Cloudy
9:36 PM 12.2 °F 2.9 °F 6.8 °F 79% 29.83 in 10.0 mi WSW 5.8 mph - N/A   Mostly Cloudy
9:55 PM 14.0 °F 3.9 °F 6.8 °F 73% 29.83 in 10.0 mi WSW 6.9 mph - N/A   Overcast
10:16 PM 15.8 °F 4.2 °F 8.6 °F 73% 29.83 in 10.0 mi West 9.2 mph - N/A   Overcast
10:35 PM 14.0 °F 3.9 °F 8.6 °F 79% 29.83 in 10.0 mi West 6.9 mph - N/A   Overcast
10:56 PM 14.0 °F 2.9 °F 8.6 °F 79% 29.83 in 10.0 mi West 8.1 mph - N/A   Overcast
11:16 PM 15.8 °F 4.2 °F 8.6 °F 73% 29.84 in 10.0 mi WNW 9.2 mph - N/A   Overcast
11:35 PM 17.6 °F 3.7 °F 10.4 °F 73% 29.83 in 10.0 mi NW 13.8 mph 17.3 mph N/A   Overcast
11:56 PM 17.6 °F 3.2 °F 12.2 °F 79% 29.84 in 10.0 mi NW 15.0 mph - N/A   Overcast